DW1785 Weather Reports


Display with metric or nautical units.
time (UTC)temp
F
wind
direction
speed
MPH
gust
MPH
rain 1hr
in
rain 24hr
in
rain mn
in
humidity
%
barometer
mb
20200222134151 59 264 3.0 9.0 0.00 0.00 0.21 70 1017.5
20200222134109 59 263 3.0 9.0 0.00 0.00 0.21 70 1017.5
20200222134048 59 255 4.0 9.0 0.00 0.00 0.21 70 1017.5
20200222134007 59 248 2.0 9.0 0.00 0.00 0.21 70 1017.5
20200222133842 59 247 1.0 9.0 0.00 0.00 0.21 70 1017.5
20200222133636 59 240 3.0 9.0 0.00 0.00 0.21 71 1017.4
20200222133236 59 247 3.0 5.0 0.00 0.00 0.21 72 1017.4
20200222133036 59 247 2.0 5.0 0.00 0.00 0.21 72 1017.4
20200222132836 58 250 0.0 5.0 0.00 0.00 0.21 73 1017.4
20200222132552 58 249 4.0 6.0 0.00 0.00 0.21 73 1017.3
20200222132531 58 249 0.0 6.0 0.00 0.00 0.21 73 1017.3
20200222132407 58 255 0.0 6.0 0.00 0.00 0.21 73 1017.3
20200222132243 58 255 0.0 6.0 0.00 0.00 0.21 72 1017.3
20200222132201 58 255 0.0 6.0 0.00 0.00 0.21 72 1017.3
20200222132101 58 255 2.0 6.0 0.00 0.00 0.21 72 1017.3
20200222132040 59 255 3.0 6.0 0.00 0.00 0.21 72 1017.3
20200222131958 59 255 1.0 6.0 0.00 0.00 0.21 72 1017.3
20200222131916 59 256 1.0 6.0 0.00 0.00 0.21 72 1017.3
20200222131710 59 255 1.0 6.0 0.00 0.00 0.21 72 1017.3
20200222131507 59 257 2.0 6.0 0.00 0.00 0.21 72 1017.3
20200222131346 59 261 4.0 6.0 0.00 0.00 0.21 72 1017.3
20200222131058 59 261 4.0 6.0 0.00 0.00 0.21 71 1017.3
20200222131037 59 261 1.0 6.0 0.00 0.00 0.21 71 1017.3
20200222131007 59 261 2.0 6.0 0.00 0.00 0.21 71 1017.3
20200222130936 59 261 2.0 6.0 0.00 0.00 0.21 72 1017.3
20200222130636 59 252 1.0 7.0 0.00 0.00 0.21 71 1017.3
20200222130436 59 252 3.0 7.0 0.00 0.00 0.21 71 1017.3
20200222130336 59 252 3.0 7.0 0.00 0.00 0.21 71 1017.4
20200222130236 59 252 2.0 7.0 0.00 0.00 0.21 71 1017.3
20200222130157 59 252 0.0 7.0 0.00 0.00 0.21 71 1017.3
20200222130036 59 260 3.0 7.0 0.00 0.00 0.21 71 1017.2
20200222125836 59 247 3.0 7.0 0.00 0.00 0.21 72 1017.3
20200222125736 59 247 2.0 14.0 0.00 0.00 0.21 72 1017.3
20200222125554 59 248 2.0 14.0 0.00 0.00 0.21 72 1017.3
20200222125512 59 248 1.0 14.0 0.00 0.00 0.21 72 1017.3
20200222125412 59 248 3.0 14.0 0.00 0.00 0.21 72 1017.3
20200222125249 59 259 2.0 14.0 0.00 0.00 0.21 72 1017.3
20200222125124 59 256 3.0 14.0 0.00 0.00 0.21 72 1017.3
20200222125042 59 258 5.0 14.0 0.00 0.00 0.21 72 1017.2
20200222125000 59 260 2.0 14.0 0.00 0.00 0.21 72 1017.2
20200222124837 59 251 3.0 14.0 0.00 0.00 0.21 72 1017.3
20200222124736 59 278 1.0 14.0 0.00 0.00 0.21 72 1017.2
20200222124654 59 240 3.0 9.0 0.00 0.00 0.21 72 1017.2
20200222124612 59 241 3.0 9.0 0.00 0.00 0.21 72 1017.2
20200222124451 59 242 2.0 9.0 0.00 0.00 0.21 72 1017.2
20200222124409 59 235 3.0 9.0 0.00 0.00 0.21 72 1017.2
20200222124327 59 238 1.0 9.0 0.00 0.00 0.21 72 1017.2
20200222124145 59 246 3.0 8.0 0.00 0.00 0.21 73 1017.2
20200222124021 59 264 3.0 8.0 0.00 0.00 0.21 73 1017.2
20200222123939 59 256 3.0 8.0 0.00 0.00 0.21 73 1017.2
20200222123918 59 261 6.0 8.0 0.00 0.00 0.21 73 1017.2
20200222123836 59 261 4.0 8.0 0.00 0.00 0.21 73 1017.1
20200222123754 58 263 1.0 8.0 0.00 0.00 0.21 73 1017.1
20200222123712 59 263 3.0 8.0 0.00 0.00 0.21 74 1017.1
20200222123506 59 255 3.0 8.0 0.00 0.00 0.21 74 1017.1
20200222123342 59 256 5.0 8.0 0.00 0.00 0.21 74 1017.1
20200222123300 59 256 4.0 7.0 0.00 0.00 0.21 74 1017.1
20200222123218 59 256 1.0 7.0 0.00 0.00 0.21 74 1017.1
20200222122957 58 260 1.0 6.0 0.00 0.00 0.21 74 1017.0
20200222122916 58 261 2.0 5.0 0.00 0.00 0.21 74 1017.0
20200222122833 58 261 2.0 5.0 0.00 0.00 0.21 74 1017.0
20200222122503 58 262 2.0 7.0 0.00 0.00 0.21 75 1017.1
20200222122403 58 261 2.0 7.0 0.00 0.00 0.21 75 1017.0
20200222122218 58 261 2.0 7.0 0.00 0.00 0.21 75 1017.0
20200222122057 58 258 3.0 10.0 0.00 0.00 0.21 74 1017.0
20200222121936 58 258 3.0 10.0 0.00 0.00 0.21 74 1017.1
20200222121836 58 258 2.0 10.0 0.00 0.00 0.21 75 1017.0
20200222121754 58 259 1.0 10.0 0.00 0.00 0.21 75 1017.1
20200222121630 57 255 1.0 10.0 0.00 0.00 0.21 76 1017.1
20200222121345 57 257 1.0 10.0 0.00 0.00 0.21 76 1016.9
20200222121226 57 258 5.0 10.0 0.00 0.00 0.21 76 1016.9
20200222121101 57 259 8.0 10.0 0.00 0.00 0.21 76 1017.0
20200222121018 57 259 1.0 8.0 0.00 0.00 0.21 76 1017.0
20200222120937 57 259 2.0 8.0 0.00 0.00 0.21 76 1017.1
20200222120812 57 260 3.0 8.0 0.00 0.00 0.21 76 1017.0
20200222120442 57 250 3.0 8.0 0.00 0.00 0.21 77 1017.0
20200222120400 57 248 3.0 8.0 0.00 0.00 0.21 77 1017.0
20200222120321 57 252 4.0 8.0 0.00 0.00 0.21 77 1017.1
20200222120236 57 250 1.0 8.0 0.00 0.00 0.21 78 1017.0
20200222120157 57 250 4.0 8.0 0.00 0.00 0.21 77 1017.0
20200222120054 57 250 0.0 8.0 0.00 0.00 0.21 78 1017.0
20200222115930 57 247 1.0 8.0 0.00 0.00 0.21 78 1017.1
20200222115848 57 247 3.0 8.0 0.00 0.00 0.21 78 1017.1
20200222115817 57 247 2.0 8.0 0.00 0.00 0.21 78 1017.1
20200222115725 56 246 3.0 8.0 0.00 0.00 0.21 78 1017.1
20200222115643 56 246 3.0 8.0 0.00 0.00 0.21 78 1017.0
20200222115601 56 246 1.0 4.0 0.00 0.00 0.21 78 1017.0
20200222115355 56 246 1.0 5.0 0.00 0.00 0.21 78 1017.1
20200222115149 56 246 3.0 5.0 0.00 0.00 0.21 79 1017.1
20200222115025 56 246 1.0 5.0 0.00 0.00 0.21 79 1017.1
20200222114943 56 246 1.0 5.0 0.00 0.00 0.21 79 1017.2
20200222114819 56 245 2.0 5.0 0.00 0.00 0.21 79 1017.1
20200222114531 56 240 3.0 5.0 0.00 0.00 0.21 80 1017.2
20200222114407 56 240 3.0 5.0 0.00 0.00 0.21 79 1017.1
20200222114201 56 238 1.0 5.0 0.00 0.00 0.21 80 1017.2
20200222114119 56 238 4.0 5.0 0.00 0.00 0.21 80 1017.1
20200222114037 56 245 3.0 4.0 0.00 0.00 0.21 80 1017.2
20200222113955 56 244 1.0 4.0 0.00 0.00 0.21 80 1017.1
20200222113934 56 244 2.0 4.0 0.00 0.00 0.21 80 1017.1
20200222113913 56 244 0.0 4.0 0.00 0.00 0.21 80 1017.1
20200222113831 56 244 1.0 4.0 0.00 0.00 0.21 80 1017.1
20200222113749 56 244 1.0 4.0 0.00 0.00 0.21 81 1017.1
20200222113625 56 245 0.0 4.0 0.00 0.00 0.21 81 1017.1
20200222113543 56 245 0.0 4.0 0.00 0.00 0.21 81 1017.1
20200222113256 56 245 2.0 4.0 0.00 0.00 0.21 81 1017.2
20200222113213 56 245 1.0 4.0 0.00 0.00 0.21 81 1017.2
20200222113154 55 245 1.0 4.0 0.00 0.00 0.21 81 1017.1
20200222112825 55 244 2.0 4.0 0.00 0.00 0.21 81 1017.2
20200222112722 55 244 0.0 4.0 0.00 0.00 0.21 81 1017.2
20200222112601 55 244 2.0 4.0 0.00 0.00 0.21 81 1017.1
20200222112519 55 244 0.0 4.0 0.00 0.00 0.21 81 1017.2
20200222112437 55 244 1.0 4.0 0.00 0.00 0.21 81 1017.1
20200222112337 55 244 0.0 4.0 0.00 0.00 0.21 81 1017.2
20200222112255 55 244 1.0 4.0 0.00 0.00 0.21 81 1017.2
20200222112213 55 244 2.0 4.0 0.00 0.00 0.21 81 1017.2
20200222111801 55 244 1.0 3.0 0.00 0.00 0.21 81 1017.1
20200222111740 55 244 1.0 3.0 0.00 0.00 0.21 81 1017.1
20200222111452 55 243 0.0 3.0 0.00 0.00 0.21 82 1017.2
20200222111246 55 243 0.0 3.0 0.00 0.00 0.21 82 1017.3
20200222111204 55 243 2.0 5.0 0.00 0.00 0.21 82 1017.3
20200222111122 55 243 0.0 5.0 0.00 0.00 0.21 82 1017.2
20200222110919 55 243 1.0 5.0 0.00 0.00 0.21 82 1017.3
20200222110713 55 243 2.0 6.0 0.00 0.00 0.21 82 1017.3
20200222110425 55 243 1.0 6.0 0.00 0.00 0.21 82 1017.3
20200222110346 55 243 0.0 6.0 0.00 0.00 0.21 82 1017.3
20200222110222 55 243 2.0 6.0 0.00 0.00 0.21 82 1017.3
20200222110143 55 243 1.0 6.0 0.00 0.00 0.21 82 1017.2
20200222110101 55 243 2.0 6.0 0.00 0.00 0.21 82 1017.2
20200222110019 55 243 0.0 6.0 0.00 0.00 0.21 82 1017.3
20200222105855 55 243 0.0 6.0 0.00 0.00 0.21 82 1017.3
20200222105813 55 243 2.0 6.0 0.00 0.00 0.21 82 1017.3
20200222105731 55 243 5.0 6.0 0.00 0.00 0.21 82 1017.3
20200222105607 55 243 5.0 5.0 0.00 0.00 0.21 82 1017.3
20200222105525 55 243 4.0 4.0 0.00 0.00 0.21 82 1017.3
20200222105443 55 243 0.0 4.0 0.00 0.00 0.21 82 1017.2
20200222105401 55 243 1.0 4.0 0.00 0.00 0.21 82 1017.2
20200222104931 55 243 1.0 5.0 0.00 0.00 0.21 82 1017.3
20200222104807 55 243 0.0 5.0 0.00 0.00 0.21 82 1017.3
20200222104725 55 243 2.0 5.0 0.00 0.00 0.21 82 1017.3
20200222104601 55 243 2.0 5.0 0.00 0.00 0.21 82 1017.3
20200222104519 55 243 2.0 5.0 0.00 0.00 0.21 82 1017.3
20200222104437 55 243 0.0 5.0 0.00 0.00 0.21 82 1017.4
20200222104231 55 243 0.0 5.0 0.00 0.00 0.21 82 1017.4
20200222104149 55 243 0.0 5.0 0.00 0.00 0.21 82 1017.4
20200222104109 55 243 4.0 5.0 0.00 0.00 0.21 82 1017.4
20200222104025 55 243 0.0 5.0 0.00 0.00 0.21 82 1017.5
20200222103925 55 243 0.0 5.0 0.00 0.00 0.21 82 1017.4
20200222103801 55 243 0.0 5.0 0.00 0.00 0.21 82 1017.5
20200222103555 55 243 0.0 5.0 0.00 0.00 0.21 82 1017.5
20200222103513 55 243 0.0 5.0 0.00 0.00 0.21 82 1017.5
20200222103432 55 243 0.0 5.0 0.00 0.00 0.21 82 1017.5
20200222103307 55 243 2.0 5.0 0.00 0.00 0.21 82 1017.5
20200222103225 55 243 0.0 6.0 0.00 0.00 0.21 82 1017.5
20200222103122 55 243 1.0 6.0 0.00 0.00 0.21 82 1017.5
20200222102937 55 243 0.0 6.0 0.00 0.00 0.21 82 1017.6
20200222102635 55 243 3.0 6.0 0.00 0.00 0.21 82 1017.6
20200222102535 55 243 1.0 6.0 0.00 0.00 0.21 82 1017.6
20200222102435 55 243 0.0 6.0 0.00 0.00 0.21 82 1017.5
20200222102235 55 243 1.0 6.0 0.00 0.00 0.21 85 1017.7
20200222102035 55 243 1.0 4.0 0.00 0.00 0.21 82 1017.6
20200222101935 55 243 2.0 4.0 0.00 0.00 0.21 82 1017.6
20200222101735 55 243 0.0 4.0 0.00 0.00 0.21 82 1017.6
20200222101635 55 243 1.0 4.0 0.00 0.00 0.21 82 1017.6
20200222101435 55 243 0.0 4.0 0.00 0.00 0.21 82 1017.6
20200222101335 55 243 3.0 4.0 0.00 0.00 0.21 82 1017.6
20200222101035 55 243 0.0 3.0 0.00 0.00 0.21 82 1017.6
20200222100735 55 243 0.0 3.0 0.00 0.00 0.21 81 1017.6
20200222100535 55 243 0.0 3.0 0.00 0.00 0.21 81 1017.7
20200222100435 55 243 0.0 3.0 0.00 0.00 0.21 81 1017.6
20200222100235 55 243 0.0 1.0 0.00 0.00 0.21 81 1017.6
20200222100135 55 243 0.0 1.0 0.00 0.00 0.21 81 1017.6
20200222095935 55 243 0.0 4.0 0.00 0.00 0.21 81 1017.6
20200222095835 55 243 0.0 4.0 0.00 0.00 0.21 81 1017.6
20200222095714 55 243 0.0 4.0 0.00 0.00 0.21 81 1017.7
20200222095553 55 243 0.0 4.0 0.00 0.00 0.21 81 1017.6
20200222095511 55 243 0.0 4.0 0.00 0.00 0.21 81 1017.6
20200222095141 55 243 1.0 5.0 0.00 0.00 0.21 81 1017.7
20200222094835 55 243 2.0 5.0 0.00 0.00 0.21 81 1017.8
20200222094735 55 243 2.0 5.0 0.00 0.00 0.21 81 1017.8
20200222094635 55 243 2.0 5.0 0.00 0.00 0.21 81 1017.9
20200222094535 55 240 2.0 5.0 0.00 0.00 0.21 81 1017.8
20200222094435 55 240 2.0 5.0 0.00 0.00 0.21 81 1017.7
20200222094235 55 240 3.0 5.0 0.00 0.00 0.21 81 1017.8
20200222094135 55 240 1.0 5.0 0.00 0.00 0.21 81 1017.7
20200222094035 55 238 1.0 6.0 0.00 0.00 0.21 81 1017.7
20200222093835 55 238 1.0 6.0 0.00 0.00 0.21 81 1017.7
20200222093756 55 238 4.0 6.0 0.00 0.00 0.21 81 1017.8
20200222093602 55 237 2.0 6.0 0.00 0.00 0.21 81 1017.8
20200222093509 55 236 2.0 6.0 0.00 0.00 0.21 81 1017.8
20200222093346 55 238 2.0 6.0 0.00 0.00 0.21 81 1017.8
20200222093306 55 238 1.0 6.0 0.00 0.00 0.21 81 1017.8
20200222093100 55 238 4.0 6.0 0.00 0.00 0.21 81 1017.7
20200222093039 55 238 3.0 6.0 0.00 0.00 0.21 81 1017.7
20200222092957 55 238 1.0 6.0 0.00 0.00 0.21 81 1017.7
20200222092751 55 238 1.0 6.0 0.00 0.00 0.21 81 1017.8
20200222092628 55 238 1.0 6.0 0.00 0.00 0.21 81 1017.8
20200222092545 55 237 1.0 6.0 0.00 0.00 0.21 81 1017.7
20200222092421 55 238 0.0 9.0 0.00 0.00 0.21 81 1017.7
20200222092339 55 238 2.0 9.0 0.00 0.00 0.21 82 1017.8
20200222092236 55 238 2.0 9.0 0.00 0.00 0.21 82 1017.8
20200222092157 55 237 1.0 9.0 0.00 0.00 0.21 82 1017.8
20200222091830 55 225 2.0 12.0 0.00 0.00 0.21 82 1017.8
20200222091751 55 222 2.0 12.0 0.00 0.00 0.21 82 1017.8
20200222091627 55 218 2.0 12.0 0.00 0.00 0.21 82 1017.8
20200222091257 55 215 0.0 12.0 0.00 0.00 0.21 82 1017.9
20200222091236 55 215 4.0 12.0 0.00 0.00 0.21 82 1017.9
20200222091154 55 215 4.0 12.0 0.00 0.00 0.21 82 1017.9
20200222091112 55 215 2.0 12.0 0.00 0.00 0.21 82 1017.9
20200222091042 55 215 7.0 12.0 0.00 0.00 0.21 82 1017.9
20200222090949 55 215 3.0 12.0 0.00 0.00 0.21 82 1017.9
20200222090928 55 216 2.0 12.0 0.00 0.00 0.21 82 1017.9
20200222090641 55 205 8.0 10.0 0.00 0.00 0.21 83 1017.9
20200222090602 55 205 1.0 9.0 0.00 0.00 0.21 83 1017.9
20200222090519 55 205 3.0 9.0 0.00 0.00 0.21 83 1017.9
20200222090438 55 205 0.0 9.0 0.00 0.00 0.21 83 1017.9
20200222090346 55 205 0.0 9.0 0.00 0.00 0.21 83 1017.8
20200222090235 55 206 4.0 9.0 0.00 0.00 0.21 83 1017.9
20200222090135 55 206 7.0 9.0 0.00 0.00 0.21 83 1017.9
20200222090035 55 206 2.0 9.0 0.00 0.00 0.21 83 1017.9
20200222085753 55 205 2.0 9.0 0.00 0.00 0.21 83 1017.9
20200222085323 54 205 2.0 7.0 0.00 0.00 0.21 84 1017.9
20200222085244 54 205 3.0 7.0 0.00 0.00 0.21 84 1018.0
20200222085141 54 198 3.0 9.0 0.00 0.00 0.21 84 1017.9
20200222085017 54 189 2.0 9.0 0.00 0.00 0.21 84 1017.9
20200222084637 54 214 4.0 9.0 0.00 0.00 0.21 84 1017.9
20200222084535 53 216 1.0 9.0 0.00 0.00 0.21 84 1017.9
20200222084436 53 211 2.0 9.0 0.00 0.00 0.21 84 1017.9
20200222084335 53 207 2.0 9.0 0.00 0.00 0.21 84 1017.9
20200222084235 53 207 2.0 9.0 0.00 0.00 0.21 85 1017.9
20200222084135 54 211 6.0 9.0 0.00 0.00 0.21 85 1018.1
20200222084035 53 207 3.0 9.0 0.00 0.00 0.21 85 1018.0
20200222083935 53 205 1.0 9.0 0.00 0.00 0.21 85 1018.1
20200222083835 53 213 0.0 9.0 0.00 0.00 0.21 84 1017.9
20200222083658 53 207 4.0 9.0 0.00 0.00 0.21 85 1018.0
20200222083544 53 211 4.0 7.0 0.00 0.00 0.21 85 1017.9
20200222083451 53 207 3.0 7.0 0.00 0.00 0.21 85 1018.0
20200222083245 52 220 4.0 5.0 0.00 0.00 0.21 85 1018.1
20200222083203 52 205 2.0 5.0 0.00 0.00 0.21 85 1018.1
20200222083121 52 200 1.0 5.0 0.00 0.00 0.21 85 1018.1
20200222083042 52 202 3.0 5.0 0.00 0.00 0.21 85 1018.2
20200222083000 52 202 0.0 5.0 0.00 0.00 0.21 85 1018.2
20200222082918 52 202 2.0 5.0 0.00 0.00 0.21 85 1018.1
20200222082836 52 205 4.0 5.0 0.00 0.00 0.21 85 1018.0
20200222082657 52 204 2.0 5.0 0.00 0.00 0.21 85 1018.0
20200222082430 52 205 2.0 5.0 0.00 0.00 0.21 84 1017.8
20200222082348 52 205 4.0 5.0 0.00 0.00 0.21 84 1018.0
20200222082306 52 202 1.0 5.0 0.00 0.00 0.21 84 1018.0
20200222082203 52 201 1.0 5.0 0.00 0.00 0.21 84 1018.0
20200222081957 52 198 0.0 5.0 0.00 0.00 0.21 84 1017.9
20200222081936 52 198 1.0 5.0 0.00 0.00 0.21 84 1018.0
20200222081854 52 194 3.0 5.0 0.00 0.00 0.21 84 1018.0
20200222081812 52 194 0.0 5.0 0.00 0.00 0.21 84 1018.0
20200222081648 52 194 5.0 5.0 0.00 0.00 0.21 84 1018.0
20200222081524 52 197 0.0 4.0 0.00 0.00 0.21 84 1017.9
20200222081248 52 197 2.0 4.0 0.00 0.00 0.21 84 1018.0
20200222081216 52 197 2.0 4.0 0.00 0.00 0.21 84 1018.0
20200222081134 52 197 0.0 4.0 0.00 0.00 0.21 84 1018.0
20200222081010 52 196 1.0 4.0 0.00 0.00 0.21 84 1018.0
20200222080722 52 197 2.0 5.0 0.00 0.00 0.21 84 1018.0
20200222080516 52 197 2.0 6.0 0.00 0.00 0.21 84 1018.1
20200222080413 52 197 0.0 6.0 0.00 0.00 0.21 84 1018.1
20200222080249 52 197 1.0 6.0 0.00 0.00 0.21 85 1018.0
20200222080044 52 196 2.0 6.0 0.00 0.00 0.21 85 1018.0
20200222075837 52 196 2.0 6.0 0.00 0.00 0.21 85 1017.9
20200222075755 52 195 4.0 6.0 0.00 0.00 0.21 85 1017.9
20200222075713 52 194 5.0 6.0 0.00 0.00 0.21 85 1017.9
20200222075643 52 194 1.0 6.0 0.00 0.00 0.21 85 1018.0
20200222075550 52 194 1.0 6.0 0.00 0.00 0.21 85 1017.9
20200222075509 52 194 5.0 6.0 0.00 0.00 0.21 85 1017.9
20200222075223 52 194 3.0 6.0 0.00 0.00 0.21 85 1017.9
20200222075141 52 194 3.0 6.0 0.00 0.00 0.21 85 1017.8
20200222075059 52 194 3.0 6.0 0.00 0.00 0.21 85 1017.8
20200222075017 52 194 3.0 6.0 0.00 0.00 0.21 85 1017.9
20200222074735 51 194 3.0 5.0 0.00 0.00 0.21 85 1017.8
20200222074436 51 193 0.0 6.0 0.00 0.00 0.21 85 1017.8
20200222074135 51 193 1.0 6.0 0.04 0.00 0.21 85 1017.8
20200222074035 51 194 2.0 6.0 0.04 0.00 0.21 85 1017.7
20200222073935 51 193 1.0 6.0 0.04 0.00 0.21 85 1017.8
20200222073835 51 194 0.0 6.0 0.05 0.00 0.21 85 1017.8
20200222073714 51 194 3.0 6.0 0.05 0.00 0.21 85 1017.7
20200222073632 51 194 5.0 5.0 0.05 0.00 0.21 84 1017.7
20200222073602 51 194 0.0 4.0 0.06 0.00 0.21 84 1017.7
20200222073530 51 194 0.0 4.0 0.06 0.00 0.21 85 1017.7
20200222073448 51 194 0.0 4.0 0.06 0.00 0.21 84 1017.6
20200222073324 51 194 0.0 4.0 0.07 0.00 0.21 84 1017.6
20200222073118 51 194 0.0 4.0 0.10 0.00 0.21 84 1017.8
20200222072954 51 194 3.0 5.0 0.13 0.00 0.21 84 1017.8
20200222072912 51 194 4.0 5.0 0.13 0.00 0.21 84 1017.8
20200222072750 51 194 0.0 5.0 0.13 0.00 0.21 84 1017.8
20200222072403 51 194 2.0 5.0 0.00 0.00 0.20 84 1017.6
20200222072321 51 194 2.0 5.0 0.00 0.00 0.20 85 1017.5
20200222072033 51 188 3.0 5.0 0.00 0.00 0.19 85 1017.6
20200222071951 51 188 2.0 5.0 0.00 0.00 0.19 85 1017.5
20200222071909 51 192 2.0 6.0 0.00 0.00 0.19 85 1017.5
20200222071827 51 187 1.0 6.0 0.00 0.00 0.19 85 1017.5
20200222071745 51 187 0.0 6.0 0.00 0.00 0.19 85 1017.5
20200222071621 51 187 2.0 6.0 0.00 0.00 0.19 85 1017.5
20200222071457 51 186 0.0 6.0 0.00 0.00 0.19 85 1017.4
20200222071333 51 190 3.0 6.0 0.00 0.00 0.19 85 1017.4
20200222071230 51 190 2.0 6.0 0.00 0.00 0.19 85 1017.4
20200222071024 51 190 1.0 6.0 0.00 0.00 0.19 84 1017.4
20200222070942 51 190 2.0 6.0 0.00 0.00 0.19 84 1017.4
20200222070615 51 196 3.0 5.0 0.00 0.00 0.19 84 1017.5
20200222070433 51 195 2.0 7.0 0.00 0.00 0.19 85 1017.3
20200222070229 51 194 1.0 7.0 0.00 0.00 0.19 84 1017.4
20200222070145 51 194 2.0 7.0 0.00 0.00 0.19 84 1017.4
20200222070045 51 193 2.0 7.0 0.00 0.00 0.19 84 1017.3
20200222070003 51 199 3.0 7.0 0.00 0.00 0.19 84 1017.3
20200222065921 51 200 2.0 7.0 0.00 0.00 0.19 84 1017.4
20200222065757 51 200 2.0 7.0 0.00 0.00 0.19 85 1017.4
20200222065715 51 201 2.0 7.0 0.00 0.00 0.19 84 1017.4
20200222065633 51 201 0.0 7.0 0.00 0.00 0.19 84 1017.4
20200222065553 51 201 2.0 7.0 0.00 0.00 0.18 84 1017.4
20200222065509 51 205 2.0 5.0 0.00 0.00 0.18 84 1017.4
20200222065427 51 207 2.0 5.0 0.00 0.00 0.18 84 1017.5
20200222065406 51 209 1.0 5.0 0.00 0.00 0.18 84 1017.5
20200222065015 50 212 2.0 5.0 0.00 0.00 0.18 84 1017.4
20200222064933 50 212 0.0 5.0 0.00 0.00 0.18 84 1017.4
20200222064912 50 212 1.0 5.0 0.00 0.00 0.18 84 1017.4
20200222064830 50 212 1.0 5.0 0.04 0.00 0.18 84 1017.4
20200222064809 50 212 2.0 5.0 0.04 0.00 0.18 84 1017.4
20200222064400 50 214 0.0 3.0 0.05 0.00 0.18 84 1017.3
20200222064318 50 215 1.0 3.0 0.05 0.00 0.18 84 1017.3
20200222064239 50 215 0.0 4.0 0.06 0.00 0.18 84 1017.4
20200222064157 50 215 1.0 4.0 0.06 0.00 0.18 84 1017.4
20200222064115 50 215 1.0 4.0 0.06 0.00 0.18 84 1017.3
20200222063954 50 215 1.0 4.0 0.07 0.00 0.18 84 1017.3
20200222063833 50 217 3.0 4.0 0.07 0.00 0.18 84 1017.3
20200222063751 50 217 1.0 4.0 0.07 0.00 0.18 84 1017.3
20200222063709 50 217 0.0 4.0 0.07 0.00 0.18 84 1017.3
20200222063548 50 217 0.0 4.0 0.07 0.00 0.18 84 1017.3
20200222063506 50 217 0.0 4.0 0.07 0.00 0.18 84 1017.3
20200222063300 50 209 0.0 8.0 0.07 0.00 0.18 84 1017.3
20200222063218 50 202 3.0 8.0 0.07 0.00 0.18 84 1017.3
20200222063036 50 205 2.0 8.0 0.07 0.00 0.17 84 1017.3
20200222062954 50 205 0.0 8.0 0.07 0.00 0.17 85 1017.3
20200222062912 50 205 0.0 8.0 0.07 0.00 0.17 85 1017.3
20200222062624 50 205 1.0 9.0 0.07 0.00 0.17 84 1017.2
20200222062421 50 205 0.0 9.0 0.07 0.00 0.17 84 1017.3
20200222062340 50 205 2.0 9.0 0.07 0.00 0.17 84 1017.3
20200222062051 50 202 1.0 11.0 0.06 0.00 0.16 84 1017.3
20200222061927 50 205 3.0 11.0 0.06 0.00 0.16 84 1017.2
20200222061848 50 196 3.0 11.0 0.06 0.00 0.16 84 1017.3
20200222061803 50 194 0.0 11.0 0.06 0.00 0.16 84 1017.3
20200222061639 50 204 0.0 11.0 0.06 0.00 0.16 84 1017.2
20200222061539 50 203 2.0 11.0 0.06 0.00 0.16 84 1017.2
20200222061048 50 202 2.0 6.0 0.00 0.00 0.15 84 1017.2
20200222060927 50 202 3.0 6.0 0.00 0.00 0.15 84 1017.2
20200222060906 50 198 2.0 6.0 0.00 0.00 0.15 84 1017.2
20200222060824 50 195 2.0 6.0 0.00 0.00 0.15 84 1017.2
20200222060742 50 196 1.0 6.0 0.00 0.00 0.15 84 1017.0
20200222060700 50 196 2.0 6.0 0.00 0.00 0.15 84 1017.0
20200222060536 50 193 6.0 6.0 0.00 0.00 0.14 84 1017.0
20200222060354 50 200 4.0 7.0 0.00 0.00 0.14 84 1017.0
20200222060253 50 198 1.0 7.0 0.00 0.00 0.14 84 1016.9
20200222055903 50 186 3.0 7.0 0.00 0.00 0.14 84 1017.0
20200222055821 50 186 4.0 7.0 0.00 0.00 0.14 84 1017.0
20200222055409 50 186 4.0 7.0 0.00 0.00 0.14 84 1016.9
20200222055327 50 184 2.0 7.0 0.00 0.00 0.14 84 1017.0
20200222055203 50 195 1.0 6.0 0.00 0.00 0.14 84 1017.0
20200222055124 50 195 2.0 6.0 0.00 0.00 0.14 84 1016.9
20200222055042 50 185 2.0 6.0 0.00 0.00 0.14 84 1016.9
20200222054901 50 188 2.0 6.0 0.00 0.00 0.14 84 1017.0
20200222054818 50 188 3.0 6.0 0.00 0.00 0.14 84 1016.9
20200222054757 50 201 3.0 6.0 0.00 0.00 0.14 84 1016.9
20200222054718 50 201 1.0 6.0 0.00 0.00 0.14 84 1016.9
20200222054636 50 201 1.0 6.0 0.00 0.00 0.14 84 1016.9
20200222054554 50 200 2.0 6.0 0.00 0.00 0.14 84 1016.8
20200222054515 50 194 2.0 6.0 0.00 0.00 0.14 84 1016.8
20200222054209 50 196 2.0 5.0 0.00 0.00 0.14 84 1016.8
20200222054004 50 198 3.0 6.0 0.00 0.00 0.14 84 1016.7
20200222053942 50 198 2.0 6.0 0.00 0.00 0.14 84 1016.8
20200222053818 50 201 2.0 7.0 0.00 0.00 0.14 83 1016.7
20200222053658 50 201 2.0 7.0 0.00 0.00 0.14 83 1016.8
20200222053616 50 201 0.0 7.0 0.00 0.00 0.14 83 1016.7
20200222053433 50 194 3.0 7.0 0.00 0.00 0.14 84 1016.8
20200222053351 50 194 2.0 7.0 0.00 0.00 0.14 84 1016.8
20200222053309 50 198 3.0 7.0 0.00 0.00 0.13 84 1016.8
20200222053228 50 198 1.0 7.0 0.04 0.00 0.13 84 1016.8
20200222053145 50 201 3.0 7.0 0.04 0.00 0.13 84 1016.8
20200222053103 50 205 2.0 7.0 0.04 0.00 0.13 84 1016.8
20200222053042 50 205 1.0 7.0 0.04 0.00 0.13 84 1016.7
20200222053000 50 206 2.0 7.0 0.04 0.00 0.13 84 1016.7
20200222052918 49 205 3.0 7.0 0.04 0.00 0.13 83 1016.8
20200222052815 49 205 2.0 6.0 0.05 0.00 0.13 84 1016.8
20200222052754 49 205 6.0 6.0 0.05 0.00 0.13 84 1016.8
20200222052712 49 205 1.0 4.0 0.05 0.00 0.13 84 1016.8
20200222052630 49 205 3.0 4.0 0.05 0.00 0.13 84 1016.9
20200222052548 49 205 1.0 4.0 0.06 0.00 0.13 84 1016.8
20200222052506 49 205 0.0 4.0 0.06 0.00 0.13 84 1016.8
20200222052427 49 205 1.0 4.0 0.07 0.00 0.13 84 1016.8
20200222052345 49 205 1.0 4.0 0.07 0.00 0.13 84 1016.8
20200222052303 49 205 1.0 4.0 0.08 0.00 0.13 84 1016.8
20200222052015 49 206 0.0 5.0 0.13 0.00 0.13 83 1016.8
20200222051933 49 206 0.0 5.0 0.15 0.00 0.13 84 1016.9
20200222051751 49 211 1.0 5.0 0.24 0.00 0.13 84 1016.9
20200222051627 49 209 4.0 5.0 0.24 0.00 0.13 84 1016.9
20200222051424 49 209 2.0 5.0 0.00 0.00 0.12 84 1016.9
20200222051303 49 203 2.0 7.0 0.00 0.00 0.11 84 1016.8
20200222051118 49 196 2.0 7.0 0.00 0.00 0.11 84 1016.6
20200222051036 49 196 2.0 7.0 0.00 0.00 0.11 84 1016.6
20200222050954 49 194 4.0 7.0 0.00 0.00 0.11 84 1016.6
20200222050924 49 200 2.0 7.0 0.00 0.00 0.11 84 1016.6
20200222050707 49 199 1.0 7.0 0.00 0.00 0.11 84 1016.5
20200222050607 49 198 3.0 7.0 0.00 0.00 0.11 84 1016.5
20200222050422 49 193 1.0 7.0 0.00 0.00 0.11 84 1016.5
20200222050340 49 194 3.0 7.0 0.00 0.00 0.11 84 1016.5
20200222050034 49 200 0.0 4.0 0.00 0.00 0.11 84 1016.5
20200222045952 49 200 0.0 4.0 0.00 0.00 0.11 83 1016.5
20200222045910 49 200 1.0 4.0 0.00 0.00 0.11 83 1016.5
20200222045850 49 200 2.0 4.0 0.00 0.00 0.11 83 1016.4
20200222045807 49 199 3.0 5.0 0.00 0.00 0.11 83 1016.4
20200222045643 49 200 2.0 7.0 0.00 0.00 0.11 84 1016.4
20200222045601 49 200 2.0 7.0 0.00 0.00 0.11 84 1016.4
20200222045522 49 200 3.0 7.0 0.00 0.00 0.11 84 1016.4
20200222045319 49 182 2.0 7.0 0.00 0.00 0.11 84 1016.2
20200222045237 49 183 3.0 7.0 0.00 0.00 0.11 84 1016.3
20200222045155 49 183 2.0 7.0 0.00 0.00 0.11 84 1016.3
20200222044913 49 174 2.0 7.0 0.00 0.00 0.11 83 1016.1
20200222044749 49 175 4.0 7.0 0.00 0.00 0.11 83 1016.1
20200222044707 49 182 4.0 6.0 0.00 0.00 0.11 84 1016.1
20200222044625 49 188 1.0 6.0 0.00 0.00 0.11 83 1016.1
20200222044543 49 188 1.0 6.0 0.00 0.00 0.11 84 1016.0
20200222044522 49 188 6.0 6.0 0.00 0.00 0.11 84 1016.0
20200222044419 49 189 2.0 4.0 0.00 0.00 0.11 84 1016.1
20200222044340 49 193 3.0 4.0 0.00 0.00 0.11 84 1016.1
20200222044217 49 193 2.0 4.0 0.00 0.00 0.11 83 1016.1
20200222044052 49 188 2.0 4.0 0.00 0.00 0.11 83 1016.1
20200222044011 49 188 2.0 4.0 0.00 0.00 0.11 84 1016.1
20200222043928 49 188 2.0 4.0 0.00 0.00 0.11 83 1016.1
20200222043743 49 188 1.0 8.0 0.00 0.00 0.11 83 1016.1
20200222043619 49 188 2.0 8.0 0.00 0.00 0.11 83 1016.1
20200222043352 49 193 3.0 8.0 0.00 0.00 0.11 83 1016.1
20200222043231 49 194 2.0 8.0 0.00 0.00 0.11 83 1016.1
20200222043108 49 200 3.0 8.0 0.00 0.00 0.11 83 1016.1
20200222043025 49 200 0.0 8.0 0.00 0.00 0.11 83 1016.1
20200222042943 49 200 1.0 8.0 0.00 0.00 0.11 83 1016.1
20200222042901 49 200 0.0 8.0 0.00 0.00 0.11 83 1016.1
20200222042819 49 196 3.0 8.0 0.00 0.00 0.11 83 1016.1
20200222042737 49 199 7.0 8.0 0.00 0.00 0.11 83 1016.1
20200222042555 49 188 3.0 8.0 0.00 0.00 0.11 84 1016.1
20200222042534 49 185 2.0 8.0 0.00 0.00 0.11 84 1016.1
20200222042413 49 179 4.0 5.0 0.00 0.00 0.11 83 1016.1
20200222042331 49 179 1.0 5.0 0.00 0.00 0.11 83 1016.1
20200222042252 49 180 2.0 5.0 0.00 0.00 0.11 83 1016.1
20200222042128 49 180 2.0 5.0 0.00 0.00 0.11 83 1016.1
20200222042049 49 180 2.0 5.0 0.00 0.00 0.11 83 1016.1
20200222041804 49 190 2.0 8.0 0.00 0.00 0.11 83 1016.1
20200222041722 49 189 1.0 8.0 0.00 0.00 0.11 83 1016.2
20200222041519 49 177 2.0 8.0 0.00 0.00 0.11 83 1016.1
20200222041437 49 174 2.0 8.0 0.00 0.00 0.11 83 1016.1
20200222041355 49 174 0.0 8.0 0.00 0.00 0.11 83 1016.0
20200222041313 49 174 2.0 8.0 0.00 0.00 0.11 83 1016.0
20200222041231 49 178 2.0 8.0 0.00 0.00 0.11 83 1016.1
20200222041149 49 178 2.0 8.0 0.00 0.00 0.11 83 1016.1
20200222041110 49 177 4.0 8.0 0.00 0.00 0.11 83 1016.1
20200222041028 49 190 3.0 8.0 0.00 0.00 0.11 83 1016.1
20200222040946 49 198 2.0 8.0 0.00 0.00 0.11 84 1016.1
20200222040825 49 181 2.0 7.0 0.00 0.00 0.11 83 1016.2
20200222040743 49 181 1.0 8.0 0.00 0.00 0.11 83 1016.2
20200222040701 49 180 0.0 8.0 0.00 0.00 0.11 83 1016.2
20200222040619 49 181 2.0 8.0 0.00 0.00 0.11 83 1016.1
20200222040437 49 181 1.0 8.0 0.00 0.00 0.11 83 1016.1
20200222040313 49 180 2.0 8.0 0.00 0.00 0.11 83 1016.2
20200222040231 49 180 1.0 8.0 0.00 0.00 0.11 83 1016.2
20200222040128 49 180 3.0 8.0 0.00 0.00 0.11 83 1016.1
20200222035843 49 176 1.0 8.0 0.00 0.00 0.11 83 1016.1
20200222035801 49 175 4.0 8.0 0.00 0.00 0.11 83 1016.1
20200222035331 49 180 3.0 7.0 0.00 0.00 0.11 83 1016.2
20200222035310 49 190 3.0 7.0 0.00 0.00 0.11 83 1016.2
20200222035228 49 186 3.0 7.0 0.00 0.00 0.11 83 1016.1
20200222034819 49 182 0.0 5.0 0.00 0.00 0.11 83 1016.0
20200222034135 49 181 3.0 6.0 0.00 0.00 0.11 83 1016.0
20200222033635 49 193 5.0 6.0 0.00 0.00 0.11 83 1015.9
20200222033535 49 197 2.0 4.0 0.00 0.00 0.11 83 1015.9
20200222033356 49 202 4.0 4.0 0.00 0.00 0.11 82 1015.9
20200222033235 49 202 3.0 4.0 0.04 0.00 0.11 82 1015.9
20200222032535 49 209 2.0 8.0 0.07 0.00 0.11 82 1015.9
20200222032235 49 209 1.0 8.0 0.10 0.00 0.11 82 1015.9
20200222032153 49 209 1.0 8.0 0.12 0.00 0.11 82 1015.9
20200222031947 49 209 1.0 8.0 0.20 0.00 0.11 82 1015.8
20200222031824 49 210 3.0 8.0 0.20 0.00 0.11 82 1015.7
20200222031700 49 210 3.0 8.0 0.20 0.00 0.11 82 1015.8
20200222031618 49 210 2.0 8.0 0.23 0.00 0.10 82 1015.7
20200222031557 49 210 3.0 8.0 0.27 0.00 0.10 82 1015.7
20200222031515 49 227 4.0 6.0 0.31 0.00 0.10 82 1015.7
20200222031227 49 232 1.0 6.0 0.25 0.00 0.09 82 1015.9
20200222031145 49 232 3.0 6.0 0.26 0.00 0.08 82 1015.9
20200222031103 49 232 2.0 6.0 0.38 0.00 0.08 82 1015.9
20200222031000 50 232 3.0 6.0 0.51 0.00 0.08 82 1015.9
20200222030754 49 232 0.0 6.0 1.04 0.00 0.06 82 1015.9
20200222030548 49 223 3.0 4.0 0.00 0.00 0.02 82 1015.8
20200222030342 49 220 4.0 4.0 0.00 0.00 0.01 82 1015.7
20200222030136 49 200 2.0 7.0 0.00 0.00 0.01 82 1015.5
20200222025930 49 196 2.0 7.0 0.00 0.00 0.01 82 1015.5
20200222025848 49 195 2.0 7.0 0.00 0.00 0.01 82 1015.4
20200222025806 49 191 3.0 7.0 0.00 0.00 0.01 82 1015.4
20200222025642 49 188 2.0 7.0 0.00 0.00 0.01 82 1015.4
20200222025436 49 190 1.0 7.0 0.00 0.00 0.01 82 1015.3
20200222025357 49 190 2.0 7.0 0.00 0.00 0.01 82 1015.3
20200222025233 49 185 7.0 8.0 0.00 0.00 0.01 82 1015.2
20200222025133 49 195 2.0 8.0 0.00 0.00 0.01 82 1015.2
20200222025112 49 194 3.0 8.0 0.00 0.00 0.01 82 1015.2
20200222025030 49 192 6.0 8.0 0.00 0.00 0.01 82 1015.2
20200222024948 49 184 1.0 8.0 0.00 0.00 0.01 82 1015.1
20200222024618 49 184 2.0 8.0 0.00 0.00 0.01 82 1015.2
20200222024536 49 183 1.0 8.0 0.00 0.00 0.01 82 1015.1
20200222024454 49 183 2.0 8.0 0.00 0.00 0.01 82 1015.1
20200222024414 49 181 2.0 8.0 0.00 0.00 0.01 82 1015.1
20200222024311 49 182 2.0 8.0 0.00 0.00 0.01 82 1015.1
20200222024045 49 192 1.0 7.0 0.00 0.00 0.01 82 1015.1
20200222023942 49 195 3.0 7.0 0.00 0.00 0.01 82 1015.1
20200222023818 49 198 2.0 7.0 0.00 0.00 0.01 82 1015.1
20200222023657 49 194 3.0 7.0 0.00 0.00 0.01 82 1015.1
20200222023533 49 186 0.0 6.0 0.00 0.00 0.01 82 1015.1
20200222023454 49 186 1.0 6.0 0.00 0.00 0.01 82 1015.0
20200222023412 49 188 1.0 6.0 0.00 0.00 0.01 82 1015.0
20200222023330 49 192 2.0 6.0 0.00 0.00 0.01 82 1015.1
20200222023206 49 192 0.0 6.0 0.00 0.00 0.01 82 1015.0
20200222023145 49 192 2.0 6.0 0.00 0.00 0.01 82 1015.0
20200222023103 49 194 3.0 6.0 0.00 0.00 0.01 82 1015.0
20200222022857 49 190 4.0 6.0 0.00 0.00 0.01 82 1015.0
20200222022815 49 197 2.0 5.0 0.00 0.00 0.01 82 1015.0
20200222022733 49 199 2.0 5.0 0.00 0.00 0.01 82 1015.0
20200222022651 49 195 3.0 7.0 0.00 0.00 0.01 82 1015.0
20200222022609 49 191 2.0 7.0 0.00 0.00 0.01 82 1015.0
20200222022445 49 190 1.0 7.0 0.00 0.00 0.01 82 1014.9
20200222022403 49 190 1.0 7.0 0.00 0.00 0.01 82 1014.9
20200222022321 49 196 3.0 7.0 0.00 0.00 0.01 82 1014.9
20200222021745 49 170 4.0 7.0 0.00 0.00 0.00 82 1014.7
20200222021703 49 176 2.0 7.0 0.00 0.00 0.00 82 1014.7
20200222021539 49 187 3.0 7.0 0.00 0.00 0.00 82 1014.7
20200222021457 49 187 2.0 7.0 0.00 0.00 0.00 82 1014.7
20200222021209 49 171 5.0 5.0 0.00 0.00 0.00 82 1014.7
20200222021148 49 171 2.0 5.0 0.00 0.00 0.00 82 1014.7
20200222021106 49 174 4.0 5.0 0.00 0.00 0.00 82 1014.7
20200222021024 49 174 2.0 5.0 0.00 0.00 0.00 82 1014.6
20200222020530 49 185 2.0 5.0 0.00 0.00 0.00 82 1014.6
20200222020448 49 179 1.0 5.0 0.00 0.00 0.00 82 1014.7
20200222020406 49 179 1.0 5.0 0.00 0.00 0.00 82 1014.7
20200222020242 49 179 2.0 5.0 0.00 0.00 0.00 82 1014.7
20200222020200 49 179 2.0 5.0 0.00 0.00 0.00 82 1014.7
20200222020118 49 179 4.0 5.0 0.00 0.00 0.00 82 1014.7
20200222015954 49 186 3.0 5.0 0.00 0.00 0.00 82 1014.7
20200222015748 49 189 4.0 6.0 0.00 0.00 0.00 82 1014.6
20200222015706 49 192 5.0 6.0 0.00 0.00 0.00 82 1014.6
20200222015542 49 181 4.0 6.0 0.00 0.00 0.00 82 1014.5
20200222015500 49 169 2.0 6.0 0.00 0.00 0.00 82 1014.5
20200222015052 49 171 2.0 6.0 0.00 0.00 0.00 82 1014.6
20200222014928 49 167 2.0 6.0 0.00 0.00 0.00 82 1014.6
20200222014746 49 175 2.0 5.0 0.00 0.00 0.00 82 1014.6
20200222014602 49 174 5.0 5.0 0.00 0.00 0.00 82 1014.6
20200222014437 49 174 2.0 5.0 0.00 0.00 0.00 82 1014.6
20200222014235 49 180 1.0 5.0 0.00 0.00 0.00 82 1014.6
20200222014135 49 183 2.0 5.0 0.00 0.00 0.00 82 1014.6
20200222013935 49 184 2.0 5.0 0.00 0.00 0.00 82 1014.6
20200222013835 49 184 2.0 5.0 0.00 0.00 0.00 82 1014.5
20200222013635 49 175 2.0 9.0 0.00 0.00 0.00 82 1014.5
20200222013435 49 178 2.0 9.0 0.00 0.00 0.00 82 1014.5
20200222013335 49 178 4.0 9.0 0.00 0.00 0.00 82 1014.5
20200222012935 49 171 2.0 9.0 0.00 0.00 0.00 82 1014.5
20200222012835 49 172 1.0 9.0 0.00 0.00 0.00 82 1014.4
20200222012735 49 164 5.0 9.0 0.00 0.00 0.00 82 1014.4
20200222012635 49 173 2.0 7.0 0.00 0.00 0.00 82 1014.4
20200222012435 49 184 3.0 7.0 0.00 0.00 0.00 82 1014.4
20200222012035 49 178 4.0 10.0 0.00 0.00 0.00 82 1014.4
20200222011935 49 182 3.0 10.0 0.00 0.00 0.00 82 1014.4
20200222011635 49 186 2.0 10.0 0.00 0.00 0.00 82 1014.4
20200222011535 49 180 0.0 10.0 0.00 0.00 0.00 82 1014.4
20200222011335 49 181 3.0 6.0 0.00 0.00 0.00 82 1014.5
20200222011135 49 172 2.0 9.0 0.00 0.00 0.00 82 1014.5
20200222010835 49 196 2.0 9.0 0.00 0.00 0.00 82 1014.4
20200222010735 49 199 1.0 9.0 0.00 0.00 0.00 82 1014.5
20200222010535 49 200 0.0 9.0 0.00 0.00 0.00 82 1014.4
20200222010435 49 200 3.0 9.0 0.00 0.00 0.00 82 1014.5
20200222010235 49 186 4.0 9.0 0.00 0.00 0.00 82 1014.5
20200222010156 49 175 2.0 9.0 0.00 0.00 0.00 82 1014.5
20200222005956 49 190 1.0 7.0 0.00 0.00 0.00 82 1014.4
20200222005935 49 190 3.0 7.0 0.00 0.00 0.00 82 1014.4
20200222005835 49 188 2.0 7.0 0.00 0.00 0.00 82 1014.5
20200222005735 49 198 4.0 7.0 0.00 0.00 0.00 82 1014.5
20200222005635 49 201 3.0 7.0 0.00 0.00 0.00 82 1014.4
20200222005435 49 192 2.0 7.0 0.00 0.00 0.00 82 1014.5
20200222005235 49 192 2.0 7.0 0.00 0.00 0.00 82 1014.5
20200222005135 49 185 5.0 6.0 0.00 0.00 0.00 82 1014.5
20200222004935 49 189 3.0 6.0 0.00 0.00 0.00 82 1014.5
20200222004835 49 205 1.0 5.0 0.00 0.00 0.00 82 1014.5
20200222004235 50 207 2.0 8.0 0.00 0.00 0.00 82 1014.6
20200222004135 50 207 2.0 8.0 0.00 0.00 0.00 82 1014.6
20200222004035 50 192 2.0 8.0 0.00 0.00 0.00 82 1014.6
20200222003956 50 191 2.0 8.0 0.00 0.00 0.00 82 1014.6
20200222003835 50 192 2.0 8.0 0.00 0.00 0.00 82 1014.6
20200222003635 50 188 1.0 8.0 0.00 0.00 0.00 82 1014.6
20200222003335 50 189 1.0 8.0 0.00 0.00 0.00 82 1014.6
20200222003235 50 194 3.0 7.0 0.00 0.00 0.00 82 1014.6
20200222002735 50 196 1.0 6.0 0.00 0.00 0.00 82 1014.6
20200222002435 50 194 2.0 6.0 0.00 0.00 0.00 82 1014.7
20200222002035 50 210 2.0 6.0 0.00 0.00 0.00 82 1014.7
20200222001753 50 201 2.0 6.0 0.00 0.00 0.00 82 1014.7
20200222001711 50 201 1.0 6.0 0.00 0.00 0.00 82 1014.7
20200222001547 50 200 1.0 6.0 0.00 0.00 0.00 82 1014.9
20200222001505 50 200 3.0 6.0 0.00 0.00 0.00 82 1014.9
20200222001324 50 196 3.0 6.0 0.00 0.00 0.00 82 1014.8
20200222001241 50 195 3.0 6.0 0.00 0.00 0.00 82 1014.8
20200222001159 50 196 2.0 6.0 0.00 0.00 0.00 82 1014.8
20200222001047 50 188 2.0 6.0 0.00 0.00 0.00 82 1014.9
20200222001016 50 188 2.0 6.0 0.00 0.00 0.00 82 1014.9
20200222000933 50 196 4.0 6.0 0.00 0.00 0.00 82 1014.8
20200222000818 50 195 2.0 6.0 0.00 0.00 0.00 82 1014.8
20200222000610 50 187 2.0 6.0 0.00 0.00 0.00 82 1014.8
20200222000524 50 188 1.0 6.0 0.00 0.00 0.00 82 1014.8
20200222000357 50 188 3.0 6.0 0.00 0.00 0.00 82 1014.8
20200222000315 50 194 2.0 6.0 0.00 0.00 0.00 82 1014.8
20200222000233 50 192 2.0 6.0 0.00 0.00 0.00 82 1014.8
20200222000151 50 197 3.0 6.0 0.00 0.00 0.00 82 1014.8
20200222000109 50 196 3.0 6.0 0.00 0.00 0.00 82 1014.8
20200222000027 50 196 1.0 6.0 0.00 0.00 0.00 82 1014.9
20200221235906 50 197 3.0 6.0 0.00 0.00 0.00 82 1014.9
20200221235824 50 182 2.0 6.0 0.00 0.00 0.00 82 1014.9
20200221235618 50 196 4.0 5.0 0.00 0.00 0.00 82 1014.9
20200221235454 50 200 4.0 5.0 0.00 0.00 0.00 82 1015.0
20200221235414 50 198 2.0 5.0 0.00 0.00 0.00 82 1015.0
20200221235251 50 198 2.0 5.0 0.00 0.00 0.00 82 1015.0
20200221235209 50 198 3.0 5.0 0.00 0.00 0.00 82 1015.0
20200221235048 50 198 1.0 5.0 0.00 0.00 0.00 82 1015.1
20200221234927 50 198 3.0 5.0 0.00 0.00 0.00 82 1014.9
20200221234233 50 198 3.0 6.0 0.00 0.00 0.00 82 1014.7
20200221234109 51 197 1.0 6.0 0.00 0.00 0.00 82 1014.7
20200221233945 51 198 2.0 6.0 0.00 0.00 0.00 82 1014.7
20200221233903 51 198 2.0 6.0 0.00 0.00 0.00 82 1014.7
20200221233821 51 198 0.0 6.0 0.00 0.00 0.00 82 1014.7
20200221233657 51 198 2.0 6.0 0.00 0.00 0.00 82 1014.6
20200221233615 51 198 3.0 6.0 0.00 0.00 0.00 82 1014.7
20200221233533 51 207 4.0 4.0 0.00 0.00 0.00 82 1014.8
20200221233451 51 211 2.0 4.0 0.00 0.00 0.00 82 1014.7
20200221233121 51 213 1.0 4.0 0.00 0.00 0.00 82 1014.7
20200221233100 51 213 2.0 4.0 0.00 0.00 0.00 82 1014.7
20200221233018 51 214 1.0 4.0 0.00 0.00 0.00 82 1014.7
20200221232936 51 215 2.0 4.0 0.00 0.00 0.00 81 1014.8
20200221232857 51 215 4.0 4.0 0.00 0.00 0.00 81 1014.8
20200221232733 51 215 2.0 4.0 0.00 0.00 0.00 81 1014.8
20200221232630 51 215 3.0 4.0 0.00 0.00 0.00 81 1014.8
20200221232506 51 217 3.0 4.0 0.00 0.00 0.00 81 1014.9
20200221232303 51 217 1.0 4.0 0.00 0.00 0.00 81 1014.9
20200221232100 51 217 1.0 4.0 0.00 0.00 0.00 82 1014.9
20200221232018 51 217 2.0 4.0 0.00 0.00 0.00 81 1014.8
20200221231815 51 217 1.0 4.0 0.00 0.00 0.00 82 1014.8
20200221231733 51 217 0.0 4.0 0.00 0.00 0.00 82 1014.8
20200221231530 51 219 2.0 3.0 0.00 0.00 0.00 82 1014.9
20200221231448 51 219 2.0 5.0 0.00 0.00 0.00 82 1014.9
20200221231406 51 219 2.0 5.0 0.00 0.00 0.00 82 1014.9
20200221231324 51 219 2.0 5.0 0.00 0.00 0.00 82 1014.8
20200221231221 51 219 0.0 5.0 0.00 0.00 0.00 82 1014.9
20200221231139 51 219 1.0 5.0 0.00 0.00 0.00 82 1014.9
20200221230954 51 219 1.0 5.0 0.00 0.00 0.00 82 1015.0
20200221230830 51 219 1.0 5.0 0.00 0.00 0.00 82 1015.0
20200221230748 51 219 2.0 5.0 0.00 0.00 0.00 82 1015.0
20200221230542 51 219 3.0 5.0 0.00 0.00 0.00 82 1015.1
20200221230500 51 219 0.0 5.0 0.00 0.00 0.00 82 1015.1
20200221230421 51 220 4.0 5.0 0.00 0.00 0.00 82 1015.0
20200221230339 51 221 2.0 5.0 0.00 0.00 0.00 82 1015.0
20200221230257 51 221 2.0 5.0 0.00 0.00 0.00 81 1015.0
20200221230218 51 221 1.0 6.0 0.00 0.00 0.00 81 1015.0
20200221230054 51 221 1.0 6.0 0.00 0.00 0.00 81 1015.0
20200221230015 51 221 1.0 6.0 0.00 0.00 0.00 82 1015.0
20200221225851 51 221 1.0 6.0 0.00 0.00 0.00 82 1015.0
20200221225527 51 223 2.0 6.0 0.00 0.00 0.00 81 1015.1
20200221225324 51 226 1.0 6.0 0.00 0.00 0.00 81 1015.1
20200221225203 51 231 6.0 6.0 0.00 0.00 0.00 82 1015.0
20200221225121 51 238 0.0 4.0 0.00 0.00 0.00 82 1015.0
20200221225000 51 240 2.0 4.0 0.00 0.00 0.00 81 1015.1
20200221224836 51 240 1.0 4.0 0.00 0.00 0.00 81 1015.1
20200221224715 51 241 2.0 4.0 0.00 0.00 0.00 81 1015.1
20200221224533 51 242 4.0 4.0 0.00 0.00 0.00 81 1015.1
20200221224451 51 244 1.0 4.0 0.00 0.00 0.00 81 1015.1
20200221224430 51 244 2.0 4.0 0.00 0.00 0.00 81 1015.1
20200221224309 51 246 1.0 4.0 0.00 0.00 0.00 81 1015.1
20200221224248 51 246 1.0 4.0 0.00 0.00 0.00 81 1015.1
20200221224124 51 246 1.0 4.0 0.00 0.00 0.00 81 1015.1
20200221224004 51 246 2.0 4.0 0.00 0.00 0.00 81 1015.1
20200221223921 51 248 2.0 3.0 0.00 0.00 0.00 81 1015.2
20200221223839 51 248 2.0 3.0 0.00 0.00 0.00 81 1015.2
20200221223739 51 249 1.0 3.0 0.00 0.00 0.00 82 1015.2
20200221223330 51 252 1.0 3.0 0.00 0.00 0.00 81 1015.2
20200221223006 51 254 2.0 3.0 0.00 0.00 0.00 81 1015.4
20200221222842 51 254 2.0 3.0 0.00 0.00 0.00 82 1015.3
20200221222539 51 254 1.0 3.0 0.00 0.00 0.00 81 1015.3
20200221222518 51 254 0.0 3.0 0.00 0.00 0.00 81 1015.3
20200221222233 51 254 1.0 2.0 0.00 0.00 0.00 81 1015.3
20200221221906 51 254 0.0 3.0 0.00 0.00 0.00 81 1015.3
20200221221618 51 255 1.0 3.0 0.00 0.00 0.00 81 1015.2
20200221221536 51 255 0.0 3.0 0.00 0.00 0.00 81 1015.3
20200221221330 51 255 0.0 3.0 0.00 0.00 0.00 81 1015.3
20200221221248 51 254 0.0 3.0 0.00 0.00 0.00 81 1015.3
20200221221206 51 255 1.0 3.0 0.00 0.00 0.00 81 1015.3
20200221221124 51 255 2.0 3.0 0.00 0.00 0.00 81 1015.3
20200221221024 51 257 1.0 3.0 0.00 0.00 0.00 81 1015.1
20200221220900 51 257 1.0 3.0 0.00 0.00 0.00 81 1015.1
20200221220736 51 258 0.0 3.0 0.00 0.00 0.00 81 1015.3
20200221220615 51 258 0.0 3.0 0.00 0.00 0.00 81 1015.2
20200221220533 51 258 0.0 3.0 0.00 0.00 0.00 81 1015.2
20200221220455 51 258 0.0 3.0 0.00 0.00 0.00 81 1015.1
20200221220330 51 258 2.0 3.0 0.00 0.00 0.00 81 1015.1
20200221220251 51 258 2.0 2.0 0.00 0.00 0.00 81 1015.1
20200221220048 51 258 2.0 2.0 0.00 0.00 0.00 81 1015.1
20200221220007 51 258 2.0 2.0 0.00 0.00 0.00 80 1015.1
20200221215924 51 258 2.0 2.0 0.00 0.00 0.00 80 1015.0
20200221215845 51 258 0.0 2.0 0.00 0.00 0.00 81 1015.0
20200221215803 51 258 0.0 2.0 0.00 0.00 0.00 81 1015.0
20200221215639 51 258 2.0 2.0 0.00 0.00 0.00 81 1015.0
20200221215515 51 258 1.0 2.0 0.00 0.00 0.00 81 1015.0
20200221215227 51 258 1.0 4.0 0.00 0.00 0.00 81 1015.0
20200221215145 51 258 1.0 4.0 0.00 0.00 0.00 81 1015.0
20200221215103 51 258 0.0 4.0 0.00 0.00 0.00 81 1015.0
20200221214941 51 258 1.0 4.0 0.00 0.00 0.01 81 1015.0
20200221214653 51 258 0.0 4.0 0.00 0.00 0.01 81 1015.0
20200221214529 51 258 0.0 4.0 0.00 0.00 0.01 81 1015.1
20200221214405 51 258 0.0 4.0 0.00 0.00 0.01 81 1015.1
20200221214323 52 258 0.0 4.0 0.00 0.00 0.01 81 1015.0
20200221214117 52 258 1.0 3.0 0.00 0.00 0.01 80 1015.0
20200221214035 52 258 1.0 3.0 0.00 0.00 0.01 80 1015.0
20200221213953 52 258 1.0 2.0 0.00 0.00 0.01 80 1015.1
20200221213911 52 258 1.0 2.0 0.00 0.00 0.01 80 1015.1
20200221213747 52 258 1.0 2.0 0.00 0.00 0.01 80 1015.1
20200221213644 52 258 1.0 2.0 0.00 0.00 0.01 80 1015.1
20200221213602 52 258 0.0 2.0 0.00 0.00 0.01 80 1015.1
20200221213438 52 258 0.0 2.0 0.00 0.00 0.01 80 1015.0
20200221213057 52 258 0.0 2.0 0.00 0.00 0.01 80 1015.0
20200221213015 52 258 0.0 2.0 0.00 0.00 0.01 80 1015.0
20200221212625 52 258 0.0 0.0 0.00 0.00 0.01 80 1015.1
20200221212543 52 258 0.0 0.0 0.00 0.00 0.01 80 1015.1
20200221212501 52 258 0.0 0.0 0.00 0.00 0.01 80 1015.1
20200221212419 52 258 0.0 0.0 0.00 0.00 0.01 80 1015.0
20200221212037 52 258 0.0 0.0 0.00 0.00 0.01 80 1015.1
20200221211937 52 258 0.0 0.0 0.00 0.00 0.01 80 1015.1
20200221211755 52 258 0.0 0.0 0.00 0.00 0.01 80 1015.1
20200221211713 52 258 0.0 0.0 0.00 0.00 0.01 80 1015.1
20200221211631 52 258 0.0 0.0 0.00 0.00 0.01 80 1015.1
20200221211425 52 258 0.0 2.0 0.00 0.00 0.01 80 1015.2
20200221211343 52 258 0.0 2.0 0.00 0.00 0.01 80 1015.1
20200221211301 52 258 0.0 2.0 0.00 0.00 0.01 80 1015.1
20200221211219 52 258 0.0 2.0 0.00 0.00 0.01 80 1015.2
20200221211137 52 258 0.0 2.0 0.00 0.00 0.01 80 1015.2
20200221210830 52 258 0.0 2.0 0.00 0.00 0.01 80 1015.3
20200221210747 52 258 0.0 2.0 0.00 0.00 0.01 80 1015.3
20200221210417 52 258 1.0 2.0 0.00 0.00 0.01 80 1015.3
20200221210335 53 258 0.0 1.0 0.00 0.00 0.01 80 1015.3
20200221210256 53 258 0.0 1.0 0.00 0.00 0.01 80 1015.3
20200221210129 53 258 0.0 0.0 0.00 0.00 0.01 80 1015.3
20200221210007 53 258 0.0 0.0 0.00 0.00 0.01 80 1015.3
20200221205924 53 258 0.0 0.0 0.00 0.00 0.01 80 1015.3
20200221205841 53 258 0.0 0.0 0.00 0.00 0.01 80 1015.2
20200221205717 53 258 0.0 1.0 0.00 0.00 0.01 80 1015.3
20200221205636 53 258 0.0 1.0 0.00 0.00 0.01 80 1015.3
20200221205553 53 258 0.0 1.0 0.00 0.00 0.01 80 1015.3
20200221205511 53 258 0.0 1.0 0.00 0.00 0.01 80 1015.3
20200221205450 53 258 0.0 1.0 0.00 0.00 0.01 80 1015.3
20200221205326 53 258 0.0 1.0 0.00 0.00 0.01 80 1015.3
20200221205244 53 258 0.0 2.0 0.00 0.00 0.01 80 1015.3
20200221205202 53 258 0.0 2.0 0.00 0.00 0.01 80 1015.3
20200221205120 53 258 0.0 2.0 0.00 0.00 0.01 80 1015.3
20200221205038 53 258 0.0 2.0 0.00 0.00 0.01 80 1015.3
20200221204959 53 258 0.0 2.0 0.00 0.00 0.01 80 1015.2
20200221204914 53 258 0.0 2.0 0.00 0.00 0.01 80 1015.2
20200221204853 53 258 0.0 2.0 0.00 0.00 0.01 80 1015.3
20200221204811 53 258 0.0 2.0 0.00 0.00 0.01 80 1015.3
20200221204647 53 258 0.0 2.0 0.00 0.00 0.01 80 1015.3
20200221204606 53 258 1.0 2.0 0.00 0.00 0.01 80 1015.3
20200221204523 53 258 0.0 2.0 0.00 0.00 0.01 80 1015.3
20200221204359 53 258 0.0 2.0 0.00 0.00 0.01 80 1015.3
20200221204317 53 258 0.0 2.0 0.00 0.00 0.01 80 1015.3
20200221204235 53 258 0.0 2.0 0.00 0.00 0.01 79 1015.3
20200221204111 53 258 0.0 3.0 0.00 0.00 0.01 79 1015.3
20200221203948 53 258 0.0 3.0 0.00 0.00 0.01 79 1015.3
20200221203906 53 258 2.0 3.0 0.00 0.00 0.01 79 1015.3
20200221203824 53 258 0.0 3.0 0.00 0.00 0.01 80 1015.3
20200221203620 53 258 0.0 3.0 0.00 0.00 0.01 79 1015.3
20200221203338 53 258 2.0 3.0 0.00 0.00 0.01 79 1015.2
20200221203256 54 258 1.0 3.0 0.00 0.00 0.01 79 1015.1
20200221202929 54 258 0.0 3.0 0.00 0.00 0.01 79 1015.1
20200221202847 54 258 0.0 3.0 0.00 0.00 0.01 79 1015.2
20200221202805 54 258 1.0 3.0 0.00 0.00 0.01 79 1015.2
20200221202723 54 258 1.0 3.0 0.00 0.00 0.01 79 1015.2
20200221202559 54 258 1.0 3.0 0.00 0.00 0.01 79 1015.1
20200221202517 54 258 0.0 3.0 0.00 0.00 0.01 79 1015.1
20200221202447 54 258 0.0 3.0 0.00 0.00 0.01 79 1015.1
20200221202336 54 258 0.0 3.0 0.00 0.00 0.01 79 1014.9
20200221202136 54 258 0.0 3.0 0.00 0.00 0.01 79 1015.0
20200221202036 54 258 2.0 3.0 0.00 0.00 0.01 79 1015.0
20200221201936 54 258 0.0 2.0 0.00 0.00 0.01 79 1015.0
20200221201857 54 258 0.0 2.0 0.00 0.00 0.01 79 1015.1
20200221201736 54 258 1.0 2.0 0.00 0.00 0.01 79 1015.0
20200221201636 54 258 0.0 1.0 0.00 0.00 0.01 79 1014.9
20200221201536 54 258 1.0 1.0 0.00 0.00 0.01 79 1015.0
20200221201436 54 258 0.0 1.0 0.00 0.00 0.01 79 1015.0
20200221201236 54 258 0.0 3.0 0.00 0.00 0.01 79 1015.0
20200221200936 55 258 0.0 3.0 0.00 0.00 0.01 79 1014.9
20200221200836 55 258 0.0 3.0 0.00 0.00 0.01 79 1015.0
20200221200336 55 258 0.0 3.0 0.00 0.00 0.01 79 1015.0
20200221200236 55 258 2.0 2.0 0.00 0.00 0.01 79 1015.0
20200221195957 55 258 0.0 1.0 0.00 0.00 0.01 79 1015.0
20200221195836 55 258 0.0 1.0 0.00 0.00 0.01 79 1015.0
20200221195736 55 258 0.0 1.0 0.00 0.00 0.01 79 1015.0
20200221195636 55 258 0.0 1.0 0.00 0.00 0.01 79 1015.0
20200221195554 55 258 0.0 1.0 0.00 0.00 0.01 79 1015.0
20200221195430 55 258 0.0 1.0 0.00 0.00 0.01 79 1015.0
20200221195100 55 258 0.0 1.0 0.00 0.00 0.01 78 1015.0
20200221195018 55 258 0.0 1.0 0.00 0.00 0.01 78 1014.9
20200221194636 55 258 0.0 1.0 0.00 0.00 0.01 78 1015.0
20200221194557 55 258 0.0 1.0 0.00 0.00 0.01 78 1014.9
20200221194536 55 258 1.0 1.0 0.00 0.00 0.01 78 1014.9
20200221194436 55 258 0.0 0.0 0.00 0.00 0.01 78 1014.9
20200221193937 55 258 0.0 0.0 0.00 0.00 0.01 78 1014.9
20200221193836 55 258 0.0 0.0 0.00 0.00 0.01 78 1015.0
20200221193636 55 258 0.0 0.0 0.00 0.00 0.01 78 1015.0
20200221193536 55 258 0.0 1.0 0.00 0.00 0.01 78 1015.0
20200221193236 55 258 0.0 1.0 0.00 0.00 0.01 78 1015.0
20200221193136 55 258 0.0 1.0 0.00 0.00 0.01 78 1015.0
20200221193036 55 258 0.0 2.0 0.00 0.00 0.01 78 1015.0
20200221192936 56 258 0.0 2.0 0.00 0.00 0.01 78 1015.0
20200221192736 56 258 0.0 2.0 0.00 0.00 0.01 78 1015.1
20200221192230 56 258 0.0 2.0 0.00 0.00 0.01 78 1015.0
20200221192200 56 258 0.0 2.0 0.00 0.00 0.01 78 1015.1
20200221192107 56 258 0.0 2.0 0.00 0.00 0.01 78 1015.1
20200221191901 56 258 0.0 2.0 0.00 0.00 0.01 78 1015.0
20200221191819 56 258 0.0 2.0 0.00 0.00 0.01 78 1015.0
20200221191655 56 258 0.0 2.0 0.00 0.00 0.01 78 1015.0
20200221191428 56 258 0.0 2.0 0.00 0.00 0.01 78 1015.0
20200221191346 56 258 0.0 2.0 0.00 0.00 0.01 78 1015.0
20200221191304 56 258 0.0 2.0 0.00 0.00 0.01 78 1015.0
20200221191222 56 258 2.0 2.0 0.00 0.00 0.01 78 1015.0
20200221191143 56 258 1.0 2.0 0.00 0.00 0.01 78 1015.0
20200221191101 56 258 0.0 2.0 0.00 0.00 0.01 78 1015.0
20200221190855 56 258 1.0 2.0 0.00 0.00 0.01 77 1015.0
20200221190813 56 258 0.0 2.0 0.00 0.00 0.01 77 1015.0
20200221190731 56 258 0.0 2.0 0.00 0.00 0.01 77 1015.0
20200221190649 56 258 0.0 2.0 0.00 0.00 0.01 77 1015.0
20200221190507 56 258 0.0 2.0 0.00 0.00 0.01 77 1015.0
20200221190301 56 258 0.0 2.0 0.00 0.00 0.01 77 1015.0
20200221190116 56 258 0.0 2.0 0.00 0.00 0.01 77 1015.0
20200221185953 57 258 0.0 2.0 0.00 0.00 0.01 77 1015.1
20200221185910 57 258 0.0 2.0 0.00 0.00 0.01 77 1015.1
20200221185828 57 258 0.0 2.0 0.00 0.00 0.01 77 1015.1
20200221185622 57 258 0.0 1.0 0.00 0.00 0.01 77 1014.9
20200221185540 57 258 0.0 1.0 0.00 0.00 0.01 77 1014.8
20200221185458 57 258 0.0 1.0 0.00 0.00 0.01 77 1014.8
20200221185416 57 258 0.0 1.0 0.00 0.00 0.01 77 1014.9
20200221185334 57 258 0.0 1.0 0.00 0.00 0.01 77 1014.9
20200221185252 57 258 0.0 1.0 0.00 0.00 0.01 77 1014.8
20200221185210 57 258 0.0 1.0 0.00 0.00 0.01 77 1014.8
20200221185025 57 258 0.0 0.0 0.00 0.00 0.01 77 1014.9
20200221184822 57 258 0.0 0.0 0.00 0.00 0.01 76 1014.9
20200221184743 57 258 0.0 0.0 0.00 0.00 0.01 76 1014.9
20200221184619 57 258 0.0 0.0 0.00 0.00 0.01 76 1014.9
20200221184416 57 258 0.0 0.0 0.00 0.00 0.01 76 1015.0
20200221184316 57 258 0.0 0.0 0.00 0.00 0.01 76 1014.9
20200221184255 57 258 0.0 0.0 0.00 0.00 0.01 76 1015.0
20200221184213 57 258 0.0 0.0 0.00 0.00 0.01 76 1015.0
20200221184049 57 258 0.0 0.0 0.00 0.00 0.01 76 1014.9
20200221183825 57 258 0.0 0.0 0.00 0.00 0.00 76 1015.0
20200221183619 57 258 0.0 0.0 0.00 0.00 0.00 76 1014.9
20200221183413 57 258 0.0 0.0 0.00 0.00 0.00 76 1014.9
20200221183331 57 258 0.0 0.0 0.00 0.00 0.00 76 1014.9
20200221183249 57 258 0.0 0.0 0.00 0.00 0.00 76 1014.9
20200221183043 57 258 0.0 0.0 0.00 0.00 0.00 76 1015.0
20200221182919 57 258 0.0 0.0 0.00 0.00 0.00 75 1014.9
20200221182756 57 258 0.0 0.0 0.00 0.00 0.00 75 1014.9
20200221182549 57 258 0.0 0.0 0.00 0.00 0.00 75 1014.9
20200221182507 57 258 0.0 0.0 0.00 0.00 0.00 75 1014.9
20200221182056 58 258 0.0 3.0 0.00 0.00 0.00 75 1014.7
20200221181910 58 258 0.0 3.0 0.00 0.00 0.00 75 1014.7
20200221181828 58 258 0.0 3.0 0.00 0.00 0.00 75 1014.7
20200221181704 58 258 0.0 3.0 0.00 0.00 0.00 75 1014.5
20200221181623 58 258 0.0 3.0 0.00 0.00 0.00 75 1014.5
20200221181540 58 258 0.0 3.0 0.00 0.00 0.00 75 1014.6
20200221181458 58 258 0.0 3.0 0.00 0.00 0.00 75 1014.6
20200221181416 58 258 0.0 3.0 0.00 0.00 0.00 75 1014.7
20200221181213 58 258 0.0 0.0 0.00 0.00 0.00 75 1014.7
20200221181007 58 258 0.0 0.0 0.00 0.00 0.00 75 1014.7
20200221180925 58 258 0.0 0.0 0.00 0.00 0.00 75 1014.8
20200221180843 58 258 0.0 0.0 0.00 0.00 0.00 75 1014.7
20200221180637 58 258 0.0 0.0 0.00 0.00 0.00 74 1014.8
20200221180349 58 258 0.0 0.0 0.00 0.00 0.00 74 1014.5
20200221180225 58 258 0.0 0.0 0.00 0.00 0.00 74 1014.5
20200221180143 58 258 0.0 0.0 0.00 0.00 0.00 74 1014.5
20200221180101 58 258 0.0 0.0 0.00 0.00 0.00 74 1014.5
20200221175858 58 258 0.0 0.0 0.00 0.00 0.00 74 1014.6
20200221175737 58 258 0.0 0.0 0.00 0.00 0.00 74 1014.6
20200221175614 58 258 0.0 0.0 0.00 0.00 0.00 74 1014.5
20200221175407 58 258 0.0 0.0 0.00 0.00 0.00 74 1014.6
20200221175201 58 258 0.0 0.0 0.00 0.00 0.00 73 1014.6
20200221175119 58 258 0.0 0.0 0.00 0.00 0.00 73 1014.6
20200221175037 58 258 0.0 0.0 0.00 0.00 0.00 73 1014.6
20200221174937 58 258 0.0 0.0 0.00 0.00 0.00 73 1014.5
20200221174855 58 258 0.0 0.0 0.00 0.00 0.00 73 1014.5
20200221174813 58 258 0.0 0.0 0.00 0.00 0.00 73 1014.5
20200221174607 58 258 0.0 0.0 0.00 0.00 0.00 73 1014.6
20200221174443 58 258 0.0 0.0 0.00 0.00 0.00 73 1014.6
20200221174401 58 258 0.0 0.0 0.00 0.00 0.00 73 1014.6
20200221174319 58 258 0.0 0.0 0.00 0.00 0.00 73 1014.5
20200221174237 58 258 0.0 0.0 0.00 0.00 0.00 73 1014.6
20200221174155 58 258 0.0 0.0 0.00 0.00 0.00 73 1014.6
20200221174113 58 258 0.0 0.0 0.00 0.00 0.00 73 1014.6
20200221174031 58 258 0.0 0.0 0.00 0.00 0.00 73 1014.7
20200221173907 58 258 0.0 0.0 0.00 0.00 0.00 73 1014.7
20200221173846 58 258 0.0 0.0 0.00 0.00 0.00 73 1014.7
20200221173640 58 258 0.0 0.0 0.00 0.00 0.00 72 1014.5
20200221173558 58 258 0.0 0.0 0.00 0.00 0.00 72 1014.5
20200221173434 58 258 0.0 0.0 0.00 0.00 0.00 72 1014.5
20200221173355 58 258 0.0 0.0 0.00 0.00 0.00 72 1014.3
20200221173313 58 258 0.0 0.0 0.00 0.00 0.00 72 1014.3
20200221173210 58 258 0.0 0.0 0.00 0.00 0.00 72 1014.3
20200221173140 59 258 0.0 0.0 0.00 0.00 0.00 72 1014.2
20200221173047 58 258 0.0 0.0 0.00 0.00 0.00 72 1014.3
20200221173005 58 258 0.0 0.0 0.00 0.00 0.00 72 1014.3
20200221172923 58 258 0.0 0.0 0.00 0.00 0.00 72 1014.3
20200221172841 59 258 0.0 0.0 0.00 0.00 0.00 72 1014.2
20200221172759 58 258 0.0 0.0 0.00 0.00 0.00 72 1014.2
20200221172717 58 258 0.0 2.0 0.00 0.00 0.00 72 1014.3
20200221172614 58 258 0.0 2.0 0.00 0.00 0.00 72 1014.3
20200221172532 58 258 0.0 2.0 0.00 0.00 0.00 72 1014.4
20200221172450 58 258 0.0 2.0 0.00 0.00 0.00 72 1014.4
20200221172202 58 258 0.0 3.0 0.00 0.00 0.00 71 1014.4
20200221172038 58 258 0.0 3.0 0.00 0.00 0.00 71 1014.4
20200221171956 58 258 0.0 3.0 0.00 0.00 0.00 71 1014.4
20200221171750 58 258 0.0 3.0 0.00 0.00 0.00 71 1014.4
20200221171708 58 258 0.0 3.0 0.00 0.00 0.00 71 1014.4
20200221171626 58 258 1.0 3.0 0.00 0.00 0.00 71 1014.4
20200221171523 58 258 0.0 3.0 0.00 0.00 0.00 71 1014.4
20200221171401 58 258 0.0 3.0 0.00 0.00 0.00 71 1014.4
20200221171317 58 258 2.0 3.0 0.00 0.00 0.00 70 1014.4
20200221170905 58 258 0.0 3.0 0.00 0.00 0.00 70 1014.3
20200221170823 58 258 2.0 3.0 0.00 0.00 0.00 70 1014.4
20200221170659 58 258 0.0 3.0 0.00 0.00 0.00 70 1014.3
20200221170617 58 258 0.0 3.0 0.00 0.00 0.00 70 1014.3
20200221170547 58 258 0.0 3.0 0.00 0.00 0.00 70 1014.3
20200221170457 58 258 0.0 3.0 0.00 0.00 0.00 69 1014.2
20200221170436 58 258 1.0 3.0 0.00 0.00 0.00 69 1014.2
20200221170336 58 258 0.0 3.0 0.00 0.00 0.00 69 1014.1
20200221170257 58 258 1.0 3.0 0.00 0.00 0.00 69 1014.2
20200221170236 58 258 0.0 3.0 0.00 0.00 0.00 69 1014.2
20200221170036 58 258 2.0 3.0 0.00 0.00 0.00 69 1014.1
20200221165936 58 258 0.0 3.0 0.00 0.00 0.00 69 1014.0
20200221165836 58 258 2.0 3.0 0.00 0.00 0.00 69 1014.0
20200221165757 58 258 2.0 3.0 0.00 0.00 0.00 69 1013.9
20200221165715 58 258 0.0 3.0 0.00 0.00 0.00 69 1013.9
20200221165551 58 258 1.0 3.0 0.00 0.00 0.00 69 1014.0
20200221165427 58 259 2.0 3.0 0.00 0.00 0.00 69 1013.9
20200221165345 58 259 0.0 3.0 0.00 0.00 0.00 69 1013.9
20200221165303 58 259 0.0 2.0 0.00 0.00 0.00 69 1013.9
20200221165221 58 259 0.0 0.0 0.00 0.00 0.00 69 1013.9
20200221165118 58 259 0.0 0.0 0.00 0.00 0.00 69 1013.9
20200221164836 58 259 0.0 0.0 0.00 0.00 0.00 69 1013.8
20200221164736 58 259 0.0 1.0 0.00 0.00 0.00 69 1013.8
20200221164636 58 259 0.0 1.0 0.00 0.00 0.00 69 1013.8
20200221164336 58 259 0.0 1.0 0.00 0.00 0.00 69 1013.7
20200221164157 58 259 0.0 2.0 0.00 0.00 0.00 69 1013.7
20200221163936 58 259 0.0 2.0 0.00 0.00 0.00 69 1013.6
20200221163836 58 259 0.0 2.0 0.00 0.00 0.00 69 1013.6
20200221163736 58 259 0.0 2.0 0.00 0.00 0.00 69 1013.5
20200221163636 58 259 0.0 2.0 0.00 0.00 0.00 69 1013.5
20200221163336 58 259 0.0 2.0 0.00 0.00 0.00 68 1013.5
20200221163236 59 259 1.0 2.0 0.00 0.00 0.00 68 1013.5
20200221163136 59 259 1.0 2.0 0.00 0.00 0.00 68 1013.6
20200221163036 59 259 1.0 2.0 0.00 0.00 0.00 68 1013.6
20200221162957 59 259 0.0 2.0 0.00 0.00 0.00 68 1013.6
20200221162833 59 259 1.0 2.0 0.00 0.00 0.00 68 1013.5
20200221162652 59 259 0.0 1.0 0.00 0.00 0.00 68 1013.5
20200221162610 59 259 0.0 1.0 0.00 0.00 0.00 68 1013.5
20200221162428 59 259 0.0 1.0 0.00 0.00 0.00 68 1013.5
20200221162325 59 259 0.0 1.0 0.00 0.00 0.00 68 1013.5
20200221162043 59 259 0.0 1.0 0.00 0.00 0.00 68 1013.4
20200221161919 59 259 0.0 0.0 0.00 0.00 0.00 68 1013.4
20200221161501 59 259 0.0 0.0 0.00 0.00 0.00 68 1013.4
20200221161408 59 259 0.0 0.0 0.00 0.00 0.00 68 1013.4
20200221161326 59 259 0.0 0.0 0.00 0.00 0.00 68 1013.5
20200221161244 59 259 0.0 0.0 0.00 0.00 0.00 68 1013.4
20200221161120 59 259 0.0 0.0 0.00 0.00 0.00 68 1013.4
20200221161059 59 259 0.0 2.0 0.00 0.00 0.00 68 1013.4
20200221161020 59 259 0.0 2.0 0.00 0.00 0.00 68 1013.5
20200221160938 59 259 0.0 2.0 0.00 0.00 0.00 68 1013.4
20200221160814 59 259 0.0 2.0 0.00 0.00 0.00 68 1013.4
20200221160734 59 259 0.0 2.0 0.00 0.00 0.00 68 1013.3
20200221160608 59 259 0.0 2.0 0.00 0.00 0.00 68 1013.3
20200221160444 59 259 0.0 3.0 0.00 0.00 0.00 68 1013.3
20200221160156 59 259 0.0 3.0 0.00 0.00 0.00 67 1013.3
20200221160032 59 259 0.0 3.0 0.00 0.00 0.00 67 1013.2
20200221155747 59 259 0.0 3.0 0.00 0.00 0.00 67 1013.2
20200221155544 59 259 0.0 3.0 0.00 0.00 0.00 67 1013.2
20200221155441 59 261 1.0 2.0 0.00 0.00 0.00 67 1013.2
20200221155420 59 261 0.0 2.0 0.00 0.00 0.00 67 1013.2
20200221155341 59 261 0.0 2.0 0.00 0.00 0.00 67 1013.2
20200221155259 59 261 0.0 2.0 0.00 0.00 0.00 67 1013.2
20200221155217 59 261 0.0 2.0 0.00 0.00 0.00 67 1013.1
20200221155138 59 261 0.0 2.0 0.00 0.00 0.00 67 1013.1
20200221154935 59 261 0.0 2.0 0.00 0.00 0.00 67 1013.1
20200221154811 59 261 0.0 2.0 0.00 0.00 0.00 67 1013.1
20200221154750 59 261 0.0 2.0 0.00 0.00 0.00 67 1013.1
20200221154710 59 261 0.0 2.0 0.00 0.00 0.00 67 1013.1
20200221154444 59 261 0.0 2.0 0.00 0.00 0.00 67 1012.9
20200221154238 59 261 0.0 2.0 0.00 0.00 0.00 67 1013.0
20200221154057 59 261 1.0 2.0 0.00 0.00 0.00 67 1013.0
20200221154036 59 261 0.0 2.0 0.00 0.00 0.00 67 1013.0
20200221153837 59 261 0.0 2.0 0.00 0.00 0.00 67 1013.0
20200221153636 59 261 0.0 2.0 0.00 0.00 0.00 67 1013.0
20200221153557 59 261 0.0 2.0 0.00 0.00 0.00 67 1013.0
20200221153310 59 261 0.0 2.0 0.00 0.00 0.00 66 1012.9
20200221153228 59 261 0.0 2.0 0.00 0.00 0.00 66 1013.0
20200221153149 59 261 0.0 2.0 0.00 0.00 0.00 66 1013.0
20200221153107 59 261 0.0 2.0 0.00 0.00 0.00 66 1013.0
20200221153025 59 261 0.0 2.0 0.00 0.00 0.00 66 1013.0
20200221152943 59 261 0.0 2.0 0.00 0.00 0.00 66 1013.0
20200221152819 60 261 1.0 2.0 0.00 0.00 0.00 66 1013.0
20200221152737 59 261 0.0 2.0 0.00 0.00 0.00 66 1012.9
20200221152655 59 261 0.0 2.0 0.00 0.00 0.00 66 1012.9
20200221152531 60 261 0.0 4.0 0.00 0.00 0.00 66 1012.9
20200221152449 60 261 0.0 4.0 0.00 0.00 0.00 66 1012.9
20200221152304 60 261 0.0 4.0 0.00 0.00 0.00 66 1012.8
20200221152120 60 261 0.0 4.0 0.00 0.00 0.00 66 1012.9
20200221151957 60 261 0.0 4.0 0.00 0.00 0.00 66 1012.8
20200221151914 60 261 0.0 4.0 0.00 0.00 0.00 66 1012.8
20200221151811 60 261 0.0 4.0 0.00 0.00 0.00 66 1012.8
20200221151729 60 261 2.0 4.0 0.00 0.00 0.00 66 1012.8
20200221151647 60 261 2.0 4.0 0.00 0.00 0.00 66 1012.8
20200221151605 60 261 2.0 4.0 0.00 0.00 0.00 66 1012.8
20200221151444 60 261 1.0 4.0 0.00 0.00 0.00 66 1012.7
20200221151402 60 261 1.0 3.0 0.00 0.00 0.00 66 1012.7
20200221151320 60 261 0.0 3.0 0.00 0.00 0.00 66 1012.8
20200221151117 60 261 0.0 2.0 0.00 0.00 0.00 66 1012.8
20200221150835 60 261 1.0 4.0 0.00 0.00 0.00 66 1012.7
20200221150753 60 261 0.0 4.0 0.00 0.00 0.00 66 1012.8
20200221150711 60 261 0.0 4.0 0.00 0.00 0.00 66 1012.8
20200221150611 60 261 0.0 4.0 0.00 0.00 0.00 66 1012.8
20200221150550 60 261 1.0 4.0 0.00 0.00 0.00 66 1012.8
20200221150347 60 261 2.0 4.0 0.00 0.00 0.00 66 1012.8
20200221150226 60 261 0.0 4.0 0.00 0.00 0.00 66 1012.8
20200221150144 60 261 0.0 4.0 0.00 0.00 0.00 66 1012.7
20200221150102 60 261 0.0 4.0 0.00 0.00 0.00 66 1012.7
20200221145856 60 261 0.0 4.0 0.00 0.00 0.00 66 1012.8
20200221145732 60 261 2.0 4.0 0.00 0.00 0.00 66 1012.8
20200221145650 60 261 0.0 4.0 0.00 0.00 0.00 66 1012.7
20200221145608 60 262 2.0 4.0 0.00 0.00 0.00 66 1012.7
20200221145547 60 262 2.0 4.0 0.00 0.00 0.00 66 1012.6
20200221145425 60 262 1.0 4.0 0.00 0.00 0.00 66 1012.7
20200221145259 60 262 0.0 4.0 0.00 0.00 0.00 66 1012.6
20200221145217 60 262 0.0 4.0 0.00 0.00 0.00 66 1012.6
20200221144929 60 262 3.0 4.0 0.00 0.00 0.00 66 1012.6
20200221144856 60 262 0.0 4.0 0.00 0.00 0.00 66 1012.7
20200221144807 60 262 2.0 5.0 0.00 0.00 0.00 66 1012.7
20200221144743 60 262 1.0 5.0 0.00 0.00 0.00 66 1012.6
20200221144600 60 262 1.0 5.0 0.00 0.00 0.00 66 1012.6
20200221144519 60 262 1.0 5.0 0.00 0.00 0.00 66 1012.7
20200221144353 60 261 3.0 5.0 0.00 0.00 0.00 65 1012.6
20200221144250 60 261 0.0 5.0 0.00 0.00 0.00 65 1012.6
20200221144147 60 261 0.0 5.0 0.00 0.00 0.00 65 1012.7
20200221144105 60 261 0.0 5.0 0.00 0.00 0.00 65 1012.7
20200221143941 60 261 2.0 5.0 0.00 0.00 0.00 65 1012.6
20200221143817 60 261 2.0 5.0 0.00 0.00 0.00 65 1012.6
20200221143747 60 262 0.0 4.0 0.00 0.00 0.00 65 1012.7
20200221143636 60 262 0.0 4.0 0.00 0.00 0.00 65 1012.6
20200221142833 61 262 0.0 4.0 0.00 0.00 0.00 64 1012.7
20200221142751 61 262 2.0 4.0 0.00 0.00 0.00 65 1012.7
20200221142712 61 262 3.0 4.0 0.00 0.00 0.00 64 1012.7
20200221142651 61 262 4.0 4.0 0.00 0.00 0.00 64 1012.6
20200221142507 61 262 3.0 4.0 0.00 0.00 0.00 64 1012.7
20200221142426 61 262 0.0 4.0 0.00 0.00 0.00 64 1012.7
20200221142313 61 262 0.0 5.0 0.00 0.00 0.00 64 1012.6
20200221141936 61 262 0.0 5.0 0.00 0.00 0.00 64 1012.6
20200221141736 61 262 1.0 5.0 0.00 0.00 0.00 64 1012.6
20200221141536 61 262 0.0 5.0 0.00 0.00 0.00 63 1012.6
20200221141457 61 262 0.0 5.0 0.00 0.00 0.00 63 1012.6
20200221141236 61 262 1.0 6.0 0.00 0.00 0.00 63 1012.5
20200221141136 61 262 3.0 6.0 0.00 0.00 0.00 63 1012.6
20200221140857 61 262 1.0 8.0 0.00 0.00 0.00 63 1012.6
20200221140836 61 262 2.0 8.0 0.00 0.00 0.00 63 1012.6
20200221140536 61 256 2.0 9.0 0.00 0.00 0.00 63 1012.6
20200221140237 62 257 2.0 9.0 0.00 0.00 0.00 62 1012.6
20200221140136 62 257 1.0 9.0 0.00 0.00 0.00 61 1012.6
20200221135936 62 257 4.0 9.0 0.00 0.00 0.00 61 1012.5
20200221135836 62 262 1.0 9.0 0.00 0.00 0.00 61 1012.6
20200221135736 62 261 3.0 9.0 0.00 0.00 0.00 61 1012.6
20200221135554 62 259 2.0 9.0 0.00 0.00 0.00 60 1012.6
20200221135123 63 258 0.0 12.0 0.00 0.00 0.00 59 1012.6
20200221134959 63 250 2.0 12.0 0.00 0.00 0.00 58 1012.6
20200221134847 63 246 2.0 12.0 0.00 0.00 0.00 57 1012.5
20200221134736 63 250 1.0 12.0 0.00 0.00 0.00 56 1012.5
20200221134636 63 250 3.0 12.0 0.00 0.00 0.00 54 1012.5